QPF
0.00 0.00 0.00 0.00 0.00 0.00 0.00 0.00 0.00 0.00 0.00 0.00 0.00 0.00 0.00 0.00 0.00 0.00 0.01 0.00 0.02 0.12
0.00 0.00 0.00 0.00 0.00 0.00 0.00 0.00 0.00 0.00 0.00 0.00 0.00 0.00 0.00 0.00 0.01 0.04 0.01 0.01 0.09 0.11
0.00 0.00 0.00 0.00 0.00 0.00 0.00 0.00 0.00 0.00 0.00 0.00 0.00 0.01 0.01 0.04 0.13 0.04 0.00 0.02 0.10 0.10
0.00 0.00 0.00 0.00 0.00 0.00 0.00 0.00 0.00 0.02 0.01 0.01 0.05 0.06 0.01 0.06 0.11 0.01 0.00 0.00 0.00 0.00
0.00 0.00 0.01 0.01 0.00 0.00 0.00 0.00 0.00 0.00 0.00 0.03 0.05 0.06 0.03 0.04 0.05 0.11 0.04 0.02 0.01 0.00
0.00 0.00 0.01 0.00 0.00 0.00 0.00 0.00 0.00 0.00 0.00 0.01 0.02 0.00 0.00 0.02 0.04 0.06 0.08 0.06 0.07 0.03
0.00 0.00 0.00 0.00 0.00 0.00 0.00 0.00 0.00 0.00 0.00 0.00 0.00 0.00 0.00 0.00 0.00 0.06 0.06 0.08 0.08 0.03
0.00 0.00 0.00 0.00 0.00 0.00 0.00 0.00 0.00 0.00 0.00 0.00 0.00 0.00 0.00 0.00 0.00 0.02 0.11 0.14 0.06 0.00
0.00 0.00 0.00 0.01 0.00 0.00 0.00 0.00 0.00 0.00 0.00 0.00 0.00 0.00 0.00 0.00 0.00 0.01 0.07 0.03 0.00 0.00
0.00 0.00 0.00 0.01 0.00 0.00 0.00 0.00 0.00 0.00 0.00 0.00 0.00 0.00 0.00 0.00 0.01 0.00 0.01 0.00 0.00 0.00
0.00 0.00 0.00 0.01 0.02 0.00 0.00 0.00 0.00 0.01 0.00 0.00 0.00 0.00 0.00 0.00 0.00 0.01 0.01 0.00 0.00 0.00
0.00 0.00 0.00 0.00 0.04 0.05 0.08 0.09 0.07 0.01 0.00 0.00 0.00 0.00 0.00 0.00 0.00 0.01 0.01 0.01 0.00 0.00
0.00 0.00 0.00 0.01 0.02 0.03 0.01 0.02 0.03 0.02 0.00 0.00 0.00 0.00 0.00 0.00 0.00 0.00 0.00 0.00 0.00 0.00
0.00 0.00 0.00 0.01 0.01 0.00 0.00 0.00 0.00 0.00 0.00 0.00 0.00 0.00 0.00 0.00 0.00 0.00 0.00 0.00 0.00 0.00
MSLP
1004.33 1004.85 1005.34 1005.65 1005.97 1006.27 1006.55 1006.64 1006.69 1006.96 1007.08 1007.21 1007.36 1007.58 1007.59 1007.79 1007.97 1008.00 1008.21 1008.24 1008.24 1008.43
1004.48 1005.03 1005.46 1005.71 1005.88 1006.13 1006.27 1006.42 1006.62 1006.85 1006.94 1007.08 1007.16 1007.27 1007.52 1007.75 1007.75 1007.85 1008.06 1008.06 1008.00 1008.30
1004.66 1004.97 1005.38 1005.64 1005.85 1006.09 1006.30 1006.48 1006.58 1006.75 1006.85 1006.94 1006.92 1007.09 1007.34 1007.58 1007.57 1007.89 1007.99 1008.01 1008.18 1008.16
1004.78 1005.09 1005.34 1005.57 1005.81 1006.04 1006.23 1006.39 1006.54 1006.65 1006.78 1006.87 1006.88 1007.10 1007.25 1007.47 1007.58 1007.74 1007.98 1008.12 1008.27 1008.17
1004.85 1005.13 1005.50 1005.76 1005.75 1005.90 1006.06 1006.25 1006.35 1006.48 1006.64 1006.80 1007.12 1007.28 1007.26 1007.38 1007.56 1007.62 1007.88 1008.18 1008.29 1008.11
1004.97 1005.25 1005.55 1005.75 1005.78 1005.91 1006.00 1006.15 1006.29 1006.43 1006.67 1007.03 1007.31 1007.38 1007.32 1007.30 1007.39 1007.46 1007.57 1007.79 1008.16 1008.21
1004.93 1005.20 1005.50 1005.66 1005.89 1005.93 1006.01 1006.10 1006.38 1006.73 1006.95 1007.21 1007.45 1007.46 1007.40 1007.37 1007.41 1007.62 1007.70 1007.94 1008.30 1008.47
1004.77 1005.06 1005.39 1005.69 1005.85 1005.86 1005.86 1006.18 1006.68 1007.02 1007.31 1007.39 1007.78 1007.91 1007.75 1007.47 1007.40 1007.75 1008.03 1008.28 1008.46 1008.68
1004.77 1005.14 1005.53 1005.78 1005.93 1006.03 1005.98 1006.48 1006.90 1007.32 1007.58 1008.03 1008.30 1008.27 1008.11 1007.88 1007.78 1007.94 1008.30 1008.59 1008.93 1009.13
1004.63 1005.16 1005.59 1005.84 1006.04 1006.32 1006.53 1006.88 1007.33 1007.66 1007.91 1008.44 1008.74 1008.65 1008.40 1008.10 1008.02 1008.17 1008.55 1008.85 1009.11 1009.40
1004.50 1005.05 1005.52 1005.91 1006.21 1006.52 1006.84 1007.09 1007.47 1007.99 1008.26 1008.70 1009.20 1008.88 1008.68 1008.39 1008.36 1008.52 1008.78 1009.04 1009.42 1009.68
1004.35 1004.93 1005.50 1005.99 1006.38 1006.68 1006.93 1007.28 1007.70 1008.10 1008.54 1009.04 1009.47 1009.20 1008.99 1008.75 1008.84 1009.06 1009.34 1009.64 1009.97 1010.28
1004.20 1004.79 1005.51 1005.92 1006.40 1006.73 1007.06 1007.44 1007.67 1008.28 1008.57 1008.90 1009.37 1009.49 1009.30 1009.28 1009.37 1009.67 1010.00 1010.36 1010.76 1010.95
1004.18 1004.87 1005.46 1005.97 1006.40 1006.82 1007.28 1007.68 1008.06 1008.49 1008.91 1009.11 1009.31 1009.69 1009.51 1009.53 1009.74 1010.09 1010.52 1010.95 1011.48 1011.89
Thickness
5697 5690 5683 5679 5674 5669 5664 5661 5659 5654 5652 5650 5647 5643 5640 5635 5631 5629 5626 5625 5626 5624
5693 5685 5678 5674 5671 5667 5664 5662 5659 5655 5652 5651 5649 5646 5641 5636 5634 5630 5628 5628 5628 5624
5687 5681 5676 5671 5668 5665 5662 5660 5658 5655 5653 5652 5651 5649 5643 5638 5636 5632 5630 5628 5626 5626
5682 5677 5673 5669 5666 5664 5661 5659 5657 5656 5654 5652 5652 5649 5644 5639 5637 5634 5630 5628 5626 5628
5678 5674 5669 5666 5665 5664 5661 5659 5657 5656 5654 5653 5651 5648 5644 5640 5637 5634 5631 5628 5626 5627
5673 5670 5667 5665 5664 5662 5660 5659 5658 5656 5653 5651 5649 5647 5645 5643 5641 5639 5636 5633 5629 5628
5672 5670 5667 5664 5662 5661 5660 5659 5657 5654 5652 5650 5648 5648 5648 5646 5644 5640 5637 5634 5631 5629
5673 5670 5667 5664 5662 5662 5660 5657 5654 5651 5649 5649 5646 5646 5647 5648 5647 5641 5638 5634 5632 5630
5671 5668 5665 5663 5661 5660 5659 5654 5651 5649 5646 5643 5642 5640 5644 5646 5646 5643 5640 5636 5633 5631
5671 5666 5664 5662 5660 5656 5653 5650 5646 5645 5643 5640 5639 5638 5641 5644 5648 5645 5642 5639 5637 5634
5673 5668 5664 5660 5657 5653 5649 5645 5642 5640 5639 5638 5635 5637 5640 5645 5648 5646 5643 5642 5639 5636
5676 5670 5664 5659 5655 5653 5650 5645 5641 5639 5637 5636 5634 5636 5639 5646 5646 5644 5642 5640 5638 5636
5679 5673 5665 5660 5656 5653 5650 5646 5643 5639 5638 5636 5636 5635 5638 5642 5644 5641 5639 5636 5633 5631
5680 5673 5667 5663 5658 5653 5648 5644 5639 5635 5634 5636 5637 5636 5638 5642 5643 5640 5638 5635 5631 5627